Location: Sobotiste
(48.7170°N, 17.4000°E)
Time: 19:20:17
(UTC+02:00)

Envisat - Pass Details

Date: 23 August 2018
Orbit: 764 x 766 km, 98.2° (Epoch: 24 September)

Event Time Altitude Azimuth Distance (km) Brightness Sun altitude
Rises 21:06:45 0° 207° (SSW) 3,222 6.2 -12.1°
Reaches altitude 10° 21:09:41 10° 225° (SW) 2,301 5.6 -12.5°
Maximum altitude 21:13:16 19° 270° (W) 1,759 5.6 -13.0°
Drops below altitude 10° 21:16:52 10° 316° (NW) 2,313 6.9 -13.5°
Sets 21:19:51 0° 334° (NNW) 3,245 7.4 -13.9°
